Current weather by "City, St" or "zip code"  
 
Advertise Here

Current Conditions: De Ridder, Beauregard Parish Airport, LA

Partly Cloudy


92.0 F

Last Updated on Aug 4 2020, 4:55 pm CDT
Humidity: 43%
Wind Speed: NW 5.8 mph
Barometer 29.96 in
Dewpoint: 66.7 F
Visibility: 10.00 mi
Precip: --
Heat Index: 95 F
Wind Chill: NA
Current conditions at:

De Ridder, Beauregard Parish Airport, LA (KDRI)

Lat: 30.83167 Lon: 93.33972

Local Radar Image active severe weather and emergency alerts image image weather storm and storm spotter reports image weather observation monitoring service image
Local
Radar
Active
Alerts
Storm Reports Obs
Monitoring

Sign-up For Email & Text Message Weather Alert Notification Services


Advertise Here

Observation History for De Ridder, Beauregard Parish Airport, LA


Time Wind
(mph)
Vis
(mi)
Weather Precip (in) Temperature (F) Relative
Humidity
Wind
Chill
(F)
Heat
Index
(F)
Pressure
Air Dwpt altimeter
(in)
sea level
(mb)
Rmks
4:55 pm CDT NW 5.8 10.00 Partly Cloudy -- 92.0 66.7 43% NA 95 29.96 M
3:55 pm CDT NW 5.8 10.00 Fair -- 93.0 66.0 41% NA 96 29.98 M
2:55 pm CDT NW 5.8 10.00 Fair -- 92.0 66.0 43% NA 95 30.01 M
1:55 pm CDT W 5.8 7.00 Fair -- 91.0 64.9 42% NA 93 30.02 M
12:55 pm CDT N 0.0 10.00 Fair -- 88.0 62.4 42% NA 88 30.04 M
11:55 am CDT SE 3.5 10.00 Fair -- 87.0 62.8 44% NA 88 30.04 M
10:55 am CDT N 0.0 10.00 Fair -- 86.0 61.0 43% NA 86 30.04 M
9:55 am CDT N 0.0 10.00 Fair -- 84.0 60.3 45% NA 84 30.04 M
8:55 am CDT N 0.0 10.00 Mostly Cloudy -- 80.0 66.7 65% NA 82 30.04 M
7:55 am CDT N 0.0 10.00 Fair -- 74.0 71.6 91% NA NA 30.03 M
6:55 am CDT N 0.0 10.00 Fair -- 73.0 71.1 95% NA NA 30.01 M
5:55 am CDT N 0.0 10.00 Partly Cloudy -- 73.0 71.4 95% NA NA 30.01 M
4:55 am CDT N 0.0 7.00 Mostly Cloudy -- 73.0 71.4 94% NA NA 30.00 M
3:55 am CDT N 0.0 10.00 Overcast -- 74.0 72.7 95% NA NA 30.00 M
2:55 am CDT N 0.0 10.00 Partly Cloudy -- 73.0 71.8 95% NA NA 29.99 M
1:55 am CDT N 0.0 10.00 Fair -- 74.0 72.9 95% NA NA 29.99 M
12:55 am CDT N 0.0 7.00 Fair -- 76.0 72.5 89% NA NA 30.00 M
11:55 pm CDT N 0.0 10.00 Fair -- 76.0 74.3 94% NA NA 30.00 M
10:55 pm CDT N 0.0 10.00 Fair -- 77.0 73.6 89% NA NA 30.00 M
9:55 pm CDT N 0.0 10.00 Fair -- 78.0 73.0 86% NA NA 29.98 M
8:55 pm CDT N 0.0 10.00 Fair -- 80.0 72.9 80% NA 84 29.97 M
7:55 pm CDT N 0.0 10.00 Fair -- 83.0 70.0 65% NA 87 29.96 M
6:55 pm CDT N 0.0 10.00 Fair -- 88.0 67.8 51% NA 92 29.96 M
5:55 pm CDT NW 5.8 10.00 Fair -- 90.0 63.9 41% NA 91 29.96 M

Regional Weather Observation


Ft. Polk/Self Strip, LA (KDNK)

Light Rain
66.0 F

De Ridder, Beauregard Parish Airport, LA (KDRI)

Partly Cloudy
92.0 F

Ft. Polk - Peason Ridge, LA (KAQV)

Fair
92.0 F

Natchitoches, Natchitoches Regional Airport, LA (KIER)

Fair
93.0 F

Jasper, Jasper County-Bell Field Airport, TX (KJAS)

Fair
94.0 F

Ft. Polk - Fullerton Landing Strip, LA (KBKB)

A Few Clouds
93.0 F